Location: Sternwarte ZA, Rosenfeld-Brittheim
(48.2889°N, 8.6789°E)
Time: 05:34:43
(UTC+02:00)

ISS - Pass Details

Date: 27 March 2020
Orbit: 417 x 423 km, 51.6° (Epoch: 29 March)

Event Time Altitude Azimuth Distance (km) Brightness Sun altitude
Rises 20:40:15 0° 285° (WNW) 2,361 1.6 -18.5°
Reaches altitude 10° 20:42:23 10° 291° (WNW) 1,498 0.3 -18.8°
Maximum altitude 20:45:39 49° 8° (N) 551 -3.1 -19.3°
Enters shadow 20:46:09 44° 38° (NE) 589 -3.2 -19.4°
